| time (UTC) | temp C | wind direction | speed KPH | gust KPH | rain 1hr cm | rain 24hr cm | rain mn cm | humidity % | barometer mb |
| 20260508081039 | 5 | 262 | 1.6 | 3.2 | 0.00 | 0.00 | 0.00 | 78 | 1009.1 |
| 20260508080539 | 5 | 262 | 0.0 | 1.6 | 0.00 | 0.00 | 0.00 | 79 | 1009.1 |
| 20260508080052 | 5 | 0 | 0.0 | 3.2 | 0.00 | 0.00 | 0.00 | 80 | 1009.1 |
| 20260508075539 | 5 | 0 | 0.0 | 3.2 | 0.00 | 0.00 | 0.00 | 80 | 1008.8 |
| 20260508075038 | 5 | 0 | 0.0 | 3.2 | 0.00 | 0.00 | 0.00 | 79 | 1008.6 |
| 20260508074550 | 5 | 262 | 0.0 | 3.2 | 0.00 | 0.00 | 0.00 | 79 | 1008.7 |
| 20260508074038 | 5 | 0 | 0.0 | 1.6 | 0.00 | 0.00 | 0.00 | 79 | 1008.5 |
| 20260508073539 | 5 | 0 | 0.0 | 1.6 | 0.00 | 0.00 | 0.00 | 80 | 1008.5 |
| 20260508073107 | 5 | 0 | 0.0 | 1.6 | 0.00 | 0.00 | 0.00 | 81 | 1008.4 |
| 20260508072538 | 5 | 262 | 0.0 | 3.2 | 0.00 | 0.00 | 0.00 | 78 | 1008.1 |
| 20260508072039 | 6 | 0 | 1.6 | 3.2 | 0.00 | 0.00 | 0.00 | 78 | 1008.1 |
| 20260508071549 | 6 | 262 | 1.6 | 3.2 | 0.00 | 0.00 | 0.00 | 77 | 1008.1 |
| 20260508071039 | 6 | 262 | 0.0 | 3.2 | 0.00 | 0.00 | 0.00 | 75 | 1008.1 |
| 20260508070539 | 6 | 0 | 0.0 | 0.0 | 0.00 | 0.00 | 0.00 | 74 | 1008.1 |
| 20260508070050 | 6 | 0 | 0.0 | 1.6 | 0.00 | 0.00 | 0.00 | 73 | 1008.2 |
| 20260508065540 | 6 | 0 | 0.0 | 1.6 | 0.00 | 0.00 | 0.00 | 73 | 1008.1 |
| 20260508065041 | 6 | 0 | 0.0 | 1.6 | 0.00 | 0.00 | 0.00 | 73 | 1008.0 |
| 20260508064601 | 6 | 0 | 0.0 | 0.0 | 0.00 | 0.00 | 0.00 | 73 | 1008.0 |
| 20260508064039 | 6 | 0 | 0.0 | 0.0 | 0.00 | 0.00 | 0.00 | 72 | 1007.9 |
| 20260508063538 | 6 | 0 | 0.0 | 0.0 | 0.00 | 0.00 | 0.00 | 72 | 1007.9 |
| 20260508063049 | 6 | 0 | 0.0 | 0.0 | 0.00 | 0.00 | 0.00 | 72 | 1007.8 |
| 20260508062539 | 7 | 0 | 0.0 | 0.0 | 0.00 | 0.00 | 0.00 | 71 | 1007.8 |
| 20260508062039 | 7 | 0 | 0.0 | 0.0 | 0.00 | 0.00 | 0.00 | 71 | 1007.8 |
| 20260508061557 | 7 | 0 | 0.0 | 0.0 | 0.00 | 0.00 | 0.00 | 70 | 1007.8 |
| 20260508061039 | 7 | 0 | 0.0 | 0.0 | 0.00 | 0.00 | 0.00 | 70 | 1007.8 |
| 20260508060539 | 7 | 0 | 0.0 | 0.0 | 0.00 | 0.00 | 0.00 | 69 | 1007.8 |
| 20260508060051 | 8 | 0 | 0.0 | 0.0 | 0.00 | 0.00 | 0.00 | 69 | 1007.7 |
| 20260508055540 | 8 | 0 | 0.0 | 0.0 | 0.00 | 0.00 | 0.00 | 68 | 1007.7 |
| 20260508055039 | 8 | 0 | 0.0 | 0.0 | 0.00 | 0.00 | 0.00 | 67 | 1007.7 |
| 20260508054620 | 8 | 0 | 0.0 | 0.0 | 0.00 | 0.00 | 0.00 | 66 | 1007.6 |
| 20260508054039 | 8 | 0 | 0.0 | 0.0 | 0.00 | 0.00 | 0.00 | 66 | 1007.7 |
| 20260508053542 | 9 | 0 | 0.0 | 1.6 | 0.00 | 0.00 | 0.00 | 65 | 1007.8 |
| 20260508053049 | 9 | 0 | 0.0 | 1.6 | 0.00 | 0.00 | 0.00 | 65 | 1007.8 |
| 20260508052539 | 9 | 0 | 0.0 | 1.6 | 0.00 | 0.00 | 0.00 | 66 | 1007.9 |
| 20260508052039 | 10 | 0 | 0.0 | 4.8 | 0.00 | 0.00 | 0.00 | 67 | 1007.9 |
| 20260508051549 | 10 | 0 | 0.0 | 4.8 | 0.00 | 0.00 | 0.00 | 64 | 1007.9 |
| 20260508051039 | 10 | 262 | 0.0 | 4.8 | 0.00 | 0.00 | 0.00 | 66 | 1008.0 |
| 20260508050537 | 10 | 0 | 0.0 | 3.2 | 0.00 | 0.00 | 0.00 | 62 | 1007.9 |
| 20260508050055 | 10 | 0 | 0.0 | 3.2 | 0.00 | 0.00 | 0.00 | 63 | 1008.0 |
| 20260508045536 | 10 | 262 | 0.0 | 3.2 | 0.00 | 0.00 | 0.00 | 67 | 1008.0 |
| 20260508045036 | 10 | 0 | 0.0 | 3.2 | 0.00 | 0.00 | 0.00 | 64 | 1007.9 |
| 20260508044547 | 10 | 0 | 0.0 | 3.2 | 0.00 | 0.00 | 0.00 | 65 | 1007.8 |
| 20260508044039 | 10 | 0 | 0.0 | 3.2 | 0.00 | 0.00 | 0.00 | 64 | 1007.8 |
| 20260508043540 | 10 | 0 | 0.0 | 3.2 | 0.00 | 0.00 | 0.00 | 63 | 1007.7 |
| 20260508043055 | 10 | 0 | 0.0 | 3.2 | 0.00 | 0.00 | 0.00 | 64 | 1007.8 |
| 20260508042537 | 10 | 0 | 0.0 | 3.2 | 0.00 | 0.00 | 0.00 | 63 | 1007.7 |
| 20260508042040 | 10 | 0 | 0.0 | 3.2 | 0.00 | 0.00 | 0.00 | 66 | 1007.8 |
| 20260508041547 | 10 | 0 | 0.0 | 3.2 | 0.00 | 0.00 | 0.00 | 64 | 1007.7 |
| 20260508041043 | 10 | 0 | 0.0 | 3.2 | 0.00 | 0.00 | 0.00 | 63 | 1007.7 |
| 20260508040538 | 10 | 269 | 0.0 | 1.6 | 0.00 | 0.00 | 0.00 | 64 | 1007.6 |
| 20260508040056 | 10 | 0 | 0.0 | 3.2 | 0.00 | 0.00 | 0.00 | 63 | 1007.7 |
| 20260508035544 | 10 | 0 | 0.0 | 3.2 | 0.00 | 0.00 | 0.00 | 65 | 1007.7 |
| 20260508035038 | 10 | 0 | 0.0 | 3.2 | 0.00 | 0.00 | 0.00 | 65 | 1007.6 |
| 20260508034551 | 10 | 0 | 0.0 | 3.2 | 0.00 | 0.00 | 0.00 | 66 | 1007.7 |
| 20260508034038 | 10 | 0 | 0.0 | 3.2 | 0.00 | 0.00 | 0.00 | 64 | 1007.7 |
| 20260508033536 | 10 | 268 | 0.0 | 3.2 | 0.00 | 0.00 | 0.00 | 65 | 1007.7 |
| 20260508033047 | 10 | 268 | 0.0 | 3.2 | 0.00 | 0.00 | 0.00 | 63 | 1007.6 |
| 20260508032539 | 10 | 268 | 0.0 | 3.2 | 0.00 | 0.00 | 0.00 | 65 | 1007.7 |
| 20260508032039 | 10 | 268 | 0.0 | 3.2 | 0.00 | 0.00 | 0.00 | 62 | 1007.6 |
| 20260508031556 | 10 | 298 | 0.0 | 4.8 | 0.00 | 0.00 | 0.00 | 63 | 1007.7 |
| 20260508031037 | 10 | 298 | 0.0 | 4.8 | 0.00 | 0.00 | 0.00 | 61 | 1007.7 |
| 20260508030538 | 10 | 298 | 0.0 | 4.8 | 0.00 | 0.00 | 0.00 | 63 | 1007.8 |
| 20260508030057 | 10 | 0 | 0.0 | 4.8 | 0.00 | 0.00 | 0.00 | 63 | 1007.9 |
| 20260508025539 | 10 | 0 | 0.0 | 4.8 | 0.00 | 0.00 | 0.00 | 63 | 1008.1 |
| 20260508025039 | 10 | 298 | 0.0 | 4.8 | 0.00 | 0.00 | 0.00 | 61 | 1008.3 |
| 20260508024548 | 10 | 347 | 0.0 | 3.2 | 0.00 | 0.00 | 0.00 | 62 | 1008.2 |
| 20260508024039 | 10 | 347 | 0.0 | 6.4 | 0.00 | 0.00 | 0.00 | 63 | 1008.3 |
| 20260508023540 | 10 | 34 | 1.6 | 6.4 | 0.00 | 0.00 | 0.00 | 63 | 1008.2 |
| 20260508023048 | 9 | 360 | 1.6 | 4.8 | 0.00 | 0.00 | 0.00 | 65 | 1008.1 |
| 20260508022538 | 10 | 0 | 0.0 | 3.2 | 0.00 | 0.00 | 0.00 | 66 | 1008.2 |
| 20260508022038 | 9 | 286 | 0.0 | 3.2 | 0.00 | 0.00 | 0.00 | 66 | 1008.2 |
| 20260508021554 | 9 | 0 | 0.0 | 3.2 | 0.00 | 0.00 | 0.00 | 69 | 1008.2 |
| 20260508021036 | 9 | 272 | 0.0 | 3.2 | 0.00 | 0.00 | 0.00 | 67 | 1008.3 |
| 20260508020539 | 9 | 0 | 0.0 | 1.6 | 0.00 | 0.00 | 0.00 | 68 | 1008.3 |
| 20260508020050 | 9 | 0 | 0.0 | 0.0 | 0.00 | 0.00 | 0.00 | 69 | 1008.3 |
| 20260508015539 | 9 | 0 | 0.0 | 1.6 | 0.00 | 0.00 | 0.00 | 70 | 1008.2 |
| 20260508015039 | 9 | 0 | 0.0 | 1.6 | 0.00 | 0.00 | 0.00 | 68 | 1008.1 |
| 20260508014547 | 10 | 0 | 0.0 | 0.0 | 0.00 | 0.00 | 0.00 | 68 | 1008.2 |
| 20260508014039 | 10 | 0 | 0.0 | 1.6 | 0.00 | 0.00 | 0.00 | 67 | 1008.1 |
| 20260508013540 | 10 | 0 | 0.0 | 1.6 | 0.00 | 0.00 | 0.00 | 66 | 1008.0 |
| 20260508013054 | 10 | 0 | 0.0 | 0.0 | 0.00 | 0.00 | 0.00 | 69 | 1008.0 |
| 20260508012539 | 10 | 0 | 0.0 | 1.6 | 0.00 | 0.00 | 0.00 | 67 | 1007.9 |
| 20260508012042 | 10 | 0 | 0.0 | 1.6 | 0.00 | 0.00 | 0.00 | 67 | 1007.8 |
| 20260508011555 | 10 | 0 | 0.0 | 1.6 | 0.00 | 0.00 | 0.00 | 67 | 1007.9 |
| 20260508011042 | 10 | 0 | 0.0 | 3.2 | 0.00 | 0.00 | 0.00 | 65 | 1007.7 |
| 20260508010539 | 10 | 0 | 0.0 | 3.2 | 0.00 | 0.00 | 0.00 | 63 | 1008.0 |
| 20260508010054 | 10 | 272 | 1.6 | 3.2 | 0.00 | 0.00 | 0.00 | 65 | 1007.9 |
| 20260508005541 | 10 | 272 | 0.0 | 3.2 | 0.00 | 0.00 | 0.00 | 68 | 1007.8 |
| 20260508005042 | 10 | 0 | 0.0 | 3.2 | 0.00 | 0.00 | 0.00 | 67 | 1007.7 |
| 20260508004550 | 10 | 272 | 0.0 | 1.6 | 0.00 | 0.00 | 0.00 | 66 | 1007.7 |
| 20260508004039 | 11 | 0 | 0.0 | 1.6 | 0.00 | 0.00 | 0.00 | 66 | 1007.7 |
| 20260508003539 | 11 | 0 | 0.0 | 3.2 | 0.00 | 0.00 | 0.00 | 66 | 1007.6 |
| 20260508003051 | 11 | 0 | 0.0 | 3.2 | 0.00 | 0.00 | 0.00 | 66 | 1007.6 |
| 20260508002540 | 11 | 0 | 0.0 | 3.2 | 0.00 | 0.00 | 0.00 | 64 | 1007.6 |
| 20260508002043 | 11 | 0 | 0.0 | 3.2 | 0.00 | 0.00 | 0.00 | 67 | 1007.3 |
| 20260508001551 | 11 | 0 | 0.0 | 3.2 | 0.00 | 0.00 | 0.00 | 67 | 1006.7 |
| 20260508001038 | 11 | 0 | 0.0 | 4.8 | 0.00 | 0.00 | 0.00 | 63 | 1006.4 |
| 20260508000539 | 11 | 0 | 0.0 | 6.4 | 0.00 | 0.00 | 0.00 | 63 | 1006.6 |
| 20260508000107 | 11 | 0 | 0.0 | 6.4 | 0.00 | 0.00 | 0.00 | 63 | 1006.7 |
| 20260507235541 | 12 | 0 | 0.0 | 1.6 | 0.00 | 0.00 | 0.00 | 64 | 1006.7 |
| 20260507235039 | 12 | 0 | 0.0 | 3.2 | 0.00 | 0.00 | 0.00 | 64 | 1006.6 |
| 20260507234551 | 12 | 0 | 0.0 | 3.2 | 0.00 | 0.00 | 0.00 | 65 | 1006.5 |
| 20260507234041 | 12 | 0 | 0.0 | 3.2 | 0.00 | 0.00 | 0.00 | 64 | 1006.4 |
| 20260507233540 | 12 | 262 | 0.0 | 3.2 | 0.00 | 0.00 | 0.00 | 64 | 1006.4 |
| 20260507233052 | 12 | 0 | 0.0 | 3.2 | 0.00 | 0.00 | 0.00 | 63 | 1006.5 |
| 20260507232538 | 12 | 262 | 0.0 | 1.6 | 0.00 | 0.00 | 0.00 | 62 | 1006.4 |
| 20260507232038 | 13 | 0 | 0.0 | 3.2 | 0.00 | 0.00 | 0.00 | 61 | 1006.4 |
| 20260507231557 | 13 | 0 | 0.0 | 3.2 | 0.00 | 0.00 | 0.00 | 60 | 1006.2 |
| 20260507231039 | 13 | 262 | 0.0 | 3.2 | 0.00 | 0.00 | 0.00 | 59 | 1006.2 |
| 20260507230542 | 13 | 262 | 0.0 | 4.8 | 0.00 | 0.00 | 0.00 | 60 | 1006.1 |
| 20260507230056 | 13 | 0 | 0.0 | 4.8 | 0.00 | 0.00 | 0.00 | 59 | 1006.1 |
| 20260507225539 | 14 | 262 | 0.0 | 3.2 | 0.00 | 0.00 | 0.00 | 57 | 1005.9 |
| 20260507225039 | 14 | 0 | 0.0 | 3.2 | 0.00 | 0.00 | 0.00 | 58 | 1006.0 |
| 20260507224550 | 14 | 0 | 0.0 | 3.2 | 0.00 | 0.00 | 0.00 | 56 | 1005.9 |
| 20260507224039 | 15 | 0 | 0.0 | 3.2 | 0.00 | 0.00 | 0.00 | 55 | 1005.8 |
| 20260507223542 | 15 | 0 | 0.0 | 3.2 | 0.00 | 0.00 | 0.00 | 56 | 1005.9 |
| 20260507223049 | 15 | 264 | 0.0 | 3.2 | 0.00 | 0.00 | 0.00 | 54 | 1005.9 |
| 20260507222539 | 15 | 0 | 0.0 | 3.2 | 0.00 | 0.00 | 0.00 | 50 | 1005.8 |
| 20260507222039 | 15 | 0 | 0.0 | 3.2 | 0.00 | 0.00 | 0.00 | 53 | 1005.8 |
| 20260507221550 | 15 | 274 | 0.0 | 4.8 | 0.00 | 0.00 | 0.00 | 53 | 1005.9 |
| 20260507221040 | 16 | 0 | 0.0 | 4.8 | 0.00 | 0.00 | 0.00 | 54 | 1005.9 |
| 20260507220539 | 16 | 0 | 0.0 | 3.2 | 0.00 | 0.00 | 0.00 | 53 | 1006.0 |
| 20260507220054 | 16 | 274 | 0.0 | 3.2 | 0.00 | 0.00 | 0.00 | 46 | 1006.0 |
| 20260507215541 | 16 | 0 | 0.0 | 4.8 | 0.00 | 0.00 | 0.00 | 45 | 1006.0 |
| 20260507215039 | 16 | 221 | 0.0 | 4.8 | 0.00 | 0.00 | 0.00 | 48 | 1005.9 |
| 20260507214554 | 16 | 0 | 0.0 | 3.2 | 0.00 | 0.00 | 0.00 | 48 | 1005.8 |
| 20260507214039 | 16 | 17 | 0.0 | 4.8 | 0.00 | 0.00 | 0.00 | 48 | 1005.8 |
| 20260507213539 | 16 | 0 | 0.0 | 4.8 | 0.00 | 0.00 | 0.00 | 50 | 1005.8 |
| 20260507213053 | 16 | 347 | 1.6 | 4.8 | 0.00 | 0.00 | 0.00 | 47 | 1005.8 |
| 20260507212542 | 16 | 347 | 0.0 | 9.7 | 0.00 | 0.00 | 0.00 | 49 | 1005.7 |
| 20260507212039 | 16 | 0 | 0.0 | 9.7 | 0.00 | 0.00 | 0.00 | 46 | 1005.7 |
| 20260507211600 | 16 | 3 | 0.0 | 4.8 | 0.00 | 0.00 | 0.00 | 45 | 1005.7 |
| 20260507211039 | 16 | 286 | 1.6 | 3.2 | 0.00 | 0.00 | 0.00 | 50 | 1005.7 |
| 20260507210539 | 16 | 0 | 0.0 | 3.2 | 0.00 | 0.00 | 0.00 | 48 | 1005.7 |
| 20260507210054 | 16 | 0 | 0.0 | 3.2 | 0.00 | 0.00 | 0.00 | 51 | 1005.6 |
| 20260507205538 | 16 | 282 | 0.0 | 3.2 | 0.00 | 0.00 | 0.00 | 54 | 1005.4 |
| 20260507205039 | 16 | 0 | 0.0 | 6.4 | 0.00 | 0.00 | 0.00 | 54 | 1005.5 |
| 20260507204554 | 16 | 282 | 1.6 | 6.4 | 0.00 | 0.00 | 0.00 | 54 | 1005.4 |
| 20260507204038 | 16 | 280 | 0.0 | 6.4 | 0.00 | 0.00 | 0.00 | 66 | 1005.3 |
| 20260507203539 | 15 | 35 | 1.6 | 8.0 | 0.00 | 0.00 | 0.00 | 67 | 1005.4 |
| 20260507203053 | 15 | 300 | 1.6 | 8.0 | 0.00 | 0.00 | 0.00 | 63 | 1005.4 |
| 20260507202543 | 16 | 119 | 1.6 | 8.0 | 0.00 | 0.00 | 0.00 | 64 | 1005.3 |
| 20260507202039 | 16 | 25 | 0.0 | 3.2 | 0.00 | 0.00 | 0.00 | 68 | 1005.2 |
| 20260507201552 | 16 | 0 | 0.0 | 3.2 | 0.00 | 0.00 | 0.00 | 68 | 1005.2 |
| 20260507201039 | 16 | 0 | 0.0 | 4.8 | 0.00 | 0.00 | 0.00 | 66 | 1005.2 |
| 20260507200539 | 16 | 0 | 0.0 | 4.8 | 0.00 | 0.00 | 0.00 | 63 | 1005.2 |
| 20260507200052 | 17 | 40 | 0.0 | 4.8 | 0.00 | 0.00 | 0.00 | 63 | 1005.0 |
| 20260507195539 | 17 | 288 | 1.6 | 3.2 | 0.00 | 0.00 | 0.00 | 63 | 1005.1 |
| 20260507195039 | 17 | 0 | 0.0 | 3.2 | 0.00 | 0.00 | 0.00 | 66 | 1005.1 |
| 20260507194557 | 17 | 278 | 0.0 | 1.6 | 0.00 | 0.00 | 0.00 | 67 | 1005.3 |
| 20260507194039 | 17 | 0 | 0.0 | 1.6 | 0.00 | 0.00 | 0.00 | 64 | 1005.4 |
| 20260507193539 | 18 | 0 | 0.0 | 1.6 | 0.00 | 0.00 | 0.00 | 67 | 1005.6 |
| 20260507193057 | 18 | 0 | 0.0 | 1.6 | 0.00 | 0.00 | 0.00 | 66 | 1005.6 |
| 20260507192539 | 18 | 278 | 0.0 | 3.2 | 0.00 | 0.00 | 0.00 | 66 | 1005.7 |
| 20260507192041 | 18 | 278 | 0.0 | 3.2 | 0.00 | 0.00 | 0.00 | 66 | 1005.8 |
| 20260507191550 | 18 | 278 | 0.0 | 3.2 | 0.00 | 0.00 | 0.00 | 65 | 1005.8 |
| 20260507191040 | 18 | 0 | 0.0 | 3.2 | 0.00 | 0.00 | 0.00 | 68 | 1005.9 |
| 20260507190539 | 18 | 221 | 0.0 | 3.2 | 0.00 | 0.00 | 0.00 | 65 | 1006.0 |
| 20260507190055 | 19 | 0 | 0.0 | 3.2 | 0.00 | 0.00 | 0.00 | 68 | 1006.1 |
| 20260507185538 | 19 | 139 | 0.0 | 3.2 | 0.00 | 0.00 | 0.00 | 70 | 1006.1 |
| 20260507185039 | 18 | 0 | 0.0 | 3.2 | 0.00 | 0.00 | 0.00 | 73 | 1006.1 |
| 20260507184550 | 18 | 0 | 0.0 | 3.2 | 0.00 | 0.00 | 0.00 | 71 | 1006.2 |
| 20260507184040 | 18 | 222 | 0.0 | 3.2 | 0.00 | 0.00 | 0.00 | 74 | 1006.3 |
| 20260507183539 | 18 | 0 | 0.0 | 3.2 | 0.00 | 0.00 | 0.00 | 71 | 1006.4 |
| 20260507183050 | 18 | 31 | 0.0 | 3.2 | 0.00 | 0.00 | 0.00 | 71 | 1006.5 |
| 20260507182539 | 18 | 0 | 1.6 | 4.8 | 0.00 | 0.00 | 0.00 | 70 | 1006.4 |
| 20260507182040 | 17 | 0 | 0.0 | 4.8 | 0.00 | 0.00 | 0.00 | 76 | 1006.8 |
| 20260507181553 | 17 | 0 | 1.6 | 4.8 | 0.00 | 0.00 | 0.00 | 73 | 1006.7 |
| 20260507181039 | 17 | 31 | 1.6 | 4.8 | 0.00 | 0.00 | 0.00 | 76 | 1006.8 |
| 20260507180543 | 18 | 31 | 1.6 | 4.8 | 0.00 | 0.00 | 0.00 | 71 | 1006.9 |
| 20260507180050 | 18 | 0 | 1.6 | 6.4 | 0.00 | 0.00 | 0.00 | 80 | 1006.8 |
| 20260507175539 | 17 | 37 | 1.6 | 6.4 | 0.00 | 0.00 | 0.00 | 78 | 1006.8 |
| 20260507175039 | 17 | 349 | 1.6 | 4.8 | 0.00 | 0.00 | 0.00 | 78 | 1006.9 |
| 20260507174622 | 16 | 10 | 1.6 | 11.3 | 0.00 | 0.00 | 0.00 | 79 | 1006.8 |
| 20260507174038 | 16 | 182 | 1.6 | 11.3 | 0.00 | 0.00 | 0.00 | 81 | 1006.8 |
| 20260507173539 | 16 | 193 | 1.6 | 12.9 | 0.00 | 0.00 | 0.00 | 67 | 1006.8 |
| 20260507173055 | 16 | 247 | 1.6 | 12.9 | 0.00 | 0.00 | 0.00 | 61 | 1006.9 |
| 20260507172540 | 16 | 158 | 1.6 | 4.8 | 0.00 | 0.00 | 0.00 | 67 | 1007.1 |
| 20260507172038 | 16 | 329 | 1.6 | 4.8 | 0.00 | 0.00 | 0.00 | 68 | 1007.3 |
| 20260507171608 | 16 | 344 | 0.0 | 4.8 | 0.00 | 0.00 | 0.00 | 68 | 1007.3 |
| 20260507171039 | 16 | 0 | 0.0 | 4.8 | 0.00 | 0.00 | 0.00 | 71 | 1007.4 |
| 20260507170539 | 16 | 0 | 1.6 | 6.4 | 0.00 | 0.00 | 0.00 | 67 | 1007.4 |
| 20260507170051 | 16 | 335 | 1.6 | 9.7 | 0.00 | 0.00 | 0.00 | 68 | 1007.4 |
| 20260507165541 | 16 | 355 | 1.6 | 9.7 | 0.00 | 0.00 | 0.00 | 67 | 1007.4 |
| 20260507165039 | 17 | 222 | 1.6 | 4.8 | 0.00 | 0.00 | 0.00 | 67 | 1007.6 |
| 20260507164552 | 16 | 330 | 1.6 | 3.2 | 0.00 | 0.00 | 0.00 | 70 | 1007.6 |
| 20260507164039 | 16 | 0 | 0.0 | 3.2 | 0.00 | 0.00 | 0.00 | 77 | 1007.6 |
| 20260507163538 | 16 | 345 | 0.0 | 4.8 | 0.00 | 0.00 | 0.00 | 70 | 1007.7 |
| 20260507163048 | 16 | 321 | 1.6 | 4.8 | 0.00 | 0.00 | 0.00 | 74 | 1007.6 |
| 20260507162539 | 16 | 0 | 0.0 | 3.2 | 0.00 | 0.00 | 0.00 | 74 | 1007.6 |
| 20260507162039 | 16 | 144 | 0.0 | 4.8 | 0.00 | 0.00 | 0.00 | 73 | 1007.6 |
| 20260507161553 | 16 | 145 | 0.0 | 8.0 | 0.00 | 0.00 | 0.00 | 73 | 1007.8 |
| 20260507161037 | 16 | 71 | 1.6 | 8.0 | 0.00 | 0.00 | 0.00 | 73 | 1007.8 |
| 20260507160540 | 16 | 143 | 1.6 | 4.8 | 0.00 | 0.00 | 0.00 | 72 | 1007.8 |
| 20260507160114 | 16 | 282 | 1.6 | 8.0 | 0.00 | 0.00 | 0.00 | 76 | 1007.8 |
| 20260507155538 | 16 | 0 | 1.6 | 9.7 | 0.00 | 0.00 | 0.00 | 74 | 1007.9 |
| 20260507155039 | 16 | 85 | 1.6 | 9.7 | 0.00 | 0.00 | 0.00 | 76 | 1007.9 |
| 20260507154551 | 16 | 101 | 1.6 | 6.4 | 0.00 | 0.00 | 0.00 | 79 | 1008.0 |
| 20260507154038 | 16 | 0 | 0.0 | 6.4 | 0.00 | 0.00 | 0.00 | 80 | 1008.2 |
| 20260507153538 | 16 | 0 | 0.0 | 4.8 | 0.00 | 0.00 | 0.00 | 78 | 1008.1 |
| 20260507153048 | 15 | 51 | 1.6 | 6.4 | 0.00 | 0.00 | 0.00 | 82 | 1008.1 |
| 20260507152541 | 15 | 137 | 0.0 | 6.4 | 0.00 | 0.00 | 0.00 | 81 | 1008.2 |
| 20260507152040 | 15 | 137 | 1.6 | 6.4 | 0.00 | 0.00 | 0.00 | 78 | 1008.2 |
| 20260507151555 | 15 | 26 | 1.6 | 4.8 | 0.00 | 0.00 | 0.00 | 81 | 1008.3 |
| 20260507151039 | 15 | 293 | 0.0 | 4.8 | 0.00 | 0.00 | 0.00 | 84 | 1008.3 |
| 20260507150539 | 14 | 0 | 0.0 | 6.4 | 0.00 | 0.00 | 0.00 | 83 | 1008.2 |
| 20260507150051 | 14 | 9 | 1.6 | 6.4 | 0.00 | 0.00 | 0.00 | 86 | 1008.3 |
| 20260507145544 | 13 | 182 | 1.6 | 4.8 | 0.00 | 0.00 | 0.00 | 85 | 1008.3 |
| 20260507145039 | 13 | 328 | 0.0 | 4.8 | 0.00 | 0.00 | 0.00 | 86 | 1008.3 |
| 20260507144553 | 13 | 328 | 0.0 | 4.8 | 0.00 | 0.00 | 0.00 | 87 | 1008.3 |
| 20260507144039 | 13 | 181 | 0.0 | 4.8 | 0.00 | 0.00 | 0.00 | 90 | 1008.2 |
| 20260507143538 | 12 | 230 | 1.6 | 4.8 | 0.00 | 0.00 | 0.00 | 90 | 1008.1 |
| 20260507143054 | 12 | 85 | 0.0 | 4.8 | 0.00 | 0.00 | 0.00 | 92 | 1008.2 |
| 20260507142538 | 12 | 85 | 0.0 | 4.8 | 0.00 | 0.00 | 0.00 | 93 | 1008.2 |
| 20260507142038 | 12 | 0 | 0.0 | 4.8 | 0.00 | 0.00 | 0.00 | 94 | 1008.4 |
| 20260507141602 | 11 | 0 | 0.0 | 4.8 | 0.00 | 0.00 | 0.00 | 93 | 1008.3 |
| 20260507141039 | 11 | 0 | 0.0 | 1.6 | 0.00 | 0.00 | 0.00 | 94 | 1008.3 |
| 20260507140539 | 11 | 0 | 0.0 | 1.6 | 0.00 | 0.00 | 0.00 | 94 | 1008.5 |
| 20260507140109 | 11 | 0 | 0.0 | 1.6 | 0.00 | 0.00 | 0.00 | 94 | 1008.8 |
| 20260507135539 | 11 | 0 | 0.0 | 4.8 | 0.00 | 0.00 | 0.00 | 94 | 1008.7 |
| 20260507135039 | 11 | 0 | 0.0 | 4.8 | 0.00 | 0.00 | 0.00 | 94 | 1008.6 |
| 20260507134550 | 11 | 247 | 0.0 | 6.4 | 0.00 | 0.00 | 0.00 | 94 | 1008.4 |
| 20260507134039 | 11 | 0 | 1.6 | 6.4 | 0.00 | 0.00 | 0.00 | 94 | 1008.5 |
| 20260507133539 | 11 | 0 | 0.0 | 3.2 | 0.00 | 0.00 | 0.00 | 95 | 1008.6 |
| 20260507133059 | 10 | 0 | 0.0 | 3.2 | 0.00 | 0.00 | 0.00 | 95 | 1008.6 |
| 20260507132539 | 10 | 0 | 0.0 | 1.6 | 0.00 | 0.00 | 0.00 | 95 | 1008.5 |
| 20260507132038 | 10 | 0 | 0.0 | 1.6 | 0.00 | 0.00 | 0.00 | 95 | 1008.6 |
| 20260507131613 | 10 | 0 | 0.0 | 3.2 | 0.00 | 0.00 | 0.00 | 95 | 1008.6 |
| 20260507131039 | 10 | 0 | 0.0 | 3.2 | 0.00 | 0.00 | 0.00 | 95 | 1008.6 |
| 20260507130541 | 10 | 0 | 0.0 | 1.6 | 0.00 | 0.00 | 0.00 | 95 | 1008.6 |
| 20260507130049 | 10 | 201 | 0.0 | 1.6 | 0.00 | 0.00 | 0.00 | 95 | 1008.6 |
| 20260507125538 | 10 | 201 | 0.0 | 0.0 | 0.00 | 0.00 | 0.00 | 95 | 1008.3 |
| 20260507125040 | 10 | 0 | 0.0 | 0.0 | 0.00 | 0.00 | 0.00 | 95 | 1008.4 |
| 20260507124554 | 10 | 0 | 0.0 | 1.6 | 0.00 | 0.00 | 0.00 | 95 | 1008.5 |
| 20260507124039 | 9 | 0 | 0.0 | 1.6 | 0.00 | 0.00 | 0.00 | 95 | 1008.4 |
| 20260507123539 | 9 | 0 | 0.0 | 1.6 | 0.00 | 0.00 | 0.00 | 95 | 1008.3 |
| 20260507123047 | 9 | 0 | 0.0 | 1.6 | 0.00 | 0.00 | 0.00 | 95 | 1008.5 |
| 20260507122538 | 9 | 203 | 0.0 | 1.6 | 0.00 | 0.00 | 0.00 | 95 | 1008.7 |
| 20260507122042 | 9 | 0 | 0.0 | 1.6 | 0.00 | 0.00 | 0.00 | 95 | 1008.7 |
| 20260507121556 | 9 | 0 | 0.0 | 1.6 | 0.00 | 0.00 | 0.00 | 95 | 1008.7 |
| 20260507121039 | 8 | 0 | 0.0 | 1.6 | 0.00 | 0.00 | 0.00 | 94 | 1008.8 |
| 20260507120538 | 8 | 0 | 0.0 | 1.6 | 0.00 | 0.00 | 0.00 | 94 | 1008.8 |
| 20260507120047 | 8 | 0 | 0.0 | 1.6 | 0.00 | 0.00 | 0.00 | 94 | 1008.6 |
| 20260507115539 | 8 | 0 | 0.0 | 0.0 | 0.00 | 0.00 | 0.00 | 95 | 1008.6 |
| 20260507115038 | 8 | 0 | 0.0 | 1.6 | 0.00 | 0.00 | 0.00 | 95 | 1008.3 |
| 20260507114548 | 8 | 0 | 0.0 | 1.6 | 0.00 | 0.00 | 0.00 | 95 | 1008.5 |
| 20260507114046 | 8 | 0 | 0.0 | 3.2 | 0.00 | 0.00 | 0.00 | 95 | 1008.5 |
| 20260507113540 | 8 | 0 | 0.0 | 3.2 | 0.00 | 0.00 | 0.00 | 95 | 1008.6 |
| 20260507113109 | 8 | 0 | 0.0 | 3.2 | 0.00 | 0.00 | 0.00 | 95 | 1008.5 |
| 20260507112543 | 8 | 0 | 0.0 | 3.2 | 0.00 | 0.00 | 0.00 | 95 | 1008.2 |
| 20260507112038 | 8 | 0 | 0.0 | 3.2 | 0.00 | 0.00 | 0.00 | 95 | 1008.3 |
| 20260507111545 | 8 | 0 | 0.0 | 3.2 | 0.00 | 0.00 | 0.00 | 94 | 1008.2 |
| 20260507111038 | 8 | 0 | 0.0 | 3.2 | 0.00 | 0.00 | 0.00 | 94 | 1008.5 |
| 20260507110539 | 8 | 0 | 0.0 | 3.2 | 0.00 | 0.00 | 0.00 | 94 | 1009.0 |
| 20260507110048 | 9 | 0 | 0.0 | 4.8 | 0.00 | 0.00 | 0.00 | 94 | 1008.8 |
| 20260507105538 | 9 | 0 | 0.0 | 4.8 | 0.00 | 0.00 | 0.00 | 94 | 1008.6 |
| 20260507105038 | 9 | 0 | 0.0 | 1.6 | 0.00 | 0.00 | 0.00 | 94 | 1007.7 |
| 20260507104600 | 9 | 0 | 0.0 | 3.2 | 0.00 | 0.00 | 0.00 | 94 | 1007.4 |
| 20260507104039 | 9 | 0 | 0.0 | 3.2 | 0.00 | 0.00 | 0.00 | 94 | 1007.3 |
| 20260507103539 | 9 | 0 | 0.0 | 6.4 | 0.00 | 0.00 | 0.00 | 94 | 1007.3 |
| 20260507103050 | 9 | 0 | 0.0 | 6.4 | 0.00 | 0.00 | 0.00 | 94 | 1007.3 |
| 20260507102538 | 9 | 0 | 0.0 | 1.6 | 0.00 | 0.00 | 0.00 | 94 | 1007.4 |
| 20260507102038 | 9 | 0 | 0.0 | 3.2 | 0.00 | 0.00 | 0.00 | 94 | 1007.5 |
| 20260507101553 | 9 | 0 | 0.0 | 3.2 | 0.00 | 0.00 | 0.00 | 94 | 1007.6 |
| 20260507101037 | 9 | 0 | 0.0 | 3.2 | 0.00 | 0.00 | 0.00 | 94 | 1007.2 |
| 20260507100539 | 9 | 0 | 0.0 | 3.2 | 0.00 | 0.00 | 0.00 | 94 | 1007.2 |
| 20260507100057 | 9 | 0 | 0.0 | 1.6 | 0.00 | 0.00 | 0.00 | 94 | 1007.2 |
| 20260507095542 | 9 | 0 | 0.0 | 1.6 | 0.00 | 0.00 | 0.00 | 94 | 1007.3 |
| 20260507095042 | 9 | 0 | 0.0 | 4.8 | 0.00 | 0.00 | 0.00 | 94 | 1007.4 |
| 20260507094604 | 10 | 0 | 0.0 | 4.8 | 0.00 | 0.00 | 0.00 | 94 | 1007.1 |
| 20260507094041 | 10 | 0 | 0.0 | 0.0 | 0.00 | 0.00 | 0.00 | 94 | 1007.1 |
| 20260507093539 | 10 | 0 | 0.0 | 1.6 | 0.00 | 0.00 | 0.00 | 94 | 1007.2 |
| 20260507093050 | 10 | 0 | 0.0 | 1.6 | 0.00 | 0.00 | 0.00 | 94 | 1007.2 |
| 20260507092539 | 10 | 0 | 0.0 | 1.6 | 0.00 | 0.00 | 0.00 | 94 | 1007.2 |
| 20260507092038 | 10 | 0 | 0.0 | 1.6 | 0.00 | 0.00 | 0.00 | 94 | 1007.0 |
| 20260507091552 | 10 | 0 | 0.0 | 0.0 | 0.00 | 0.00 | 0.00 | 94 | 1007.0 |
| 20260507091041 | 10 | 0 | 0.0 | 1.6 | 0.00 | 0.00 | 0.00 | 94 | 1007.1 |
| 20260507090540 | 10 | 0 | 0.0 | 1.6 | 0.00 | 0.00 | 0.00 | 94 | 1007.4 |
| 20260507090049 | 10 | 0 | 0.0 | 1.6 | 0.00 | 0.00 | 0.00 | 95 | 1007.4 |
| 20260507085540 | 11 | 0 | 0.0 | 4.8 | 0.00 | 0.00 | 0.00 | 95 | 1007.2 |
| 20260507085039 | 11 | 0 | 0.0 | 6.4 | 0.00 | 0.00 | 0.00 | 95 | 1006.9 |
| 20260507084557 | 11 | 340 | 0.0 | 6.4 | 0.00 | 0.00 | 0.00 | 95 | 1006.7 |
| 20260507084038 | 11 | 0 | 0.0 | 1.6 | 0.00 | 0.00 | 0.00 | 95 | 1007.3 |
| 20260507083540 | 11 | 0 | 0.0 | 0.0 | 0.00 | 0.00 | 0.00 | 95 | 1006.9 |
| 20260507083047 | 11 | 0 | 0.0 | 0.0 | 0.00 | 0.00 | 0.00 | 95 | 1006.6 |
| 20260507082538 | 11 | 0 | 0.0 | 0.0 | 0.00 | 0.00 | 0.00 | 95 | 1006.7 |
| 20260507082040 | 11 | 0 | 0.0 | 0.0 | 0.00 | 0.00 | 0.00 | 95 | 1006.8 |
| 20260507081550 | 11 | 0 | 0.0 | 3.2 | 0.00 | 0.00 | 0.00 | 95 | 1006.9 |